| time (UTC) | temp F | wind direction | speed knots | gust knots | rain 1hr in | rain 24hr in | rain mn in | humidity % | barometer mb |
| 20260507091835 | 72 | 258 | 2.6 | 6.1 | 0.00 | 0.00 | 0.00 | 48 | 1017.1 |
| 20260507090836 | 72 | 217 | 1.7 | 5.2 | 0.00 | 0.00 | 0.00 | 50 | 1017.2 |
| 20260507085836 | 71 | 275 | 2.6 | 5.2 | 0.00 | 0.00 | 0.00 | 50 | 1017.2 |
| 20260507085335 | 71 | 145 | 1.7 | 5.2 | 0.00 | 0.00 | 0.00 | 50 | 1017.0 |
| 20260507084336 | 70 | 260 | 2.6 | 5.2 | 0.00 | 0.00 | 0.00 | 51 | 1017.1 |
| 20260507083836 | 70 | 172 | 1.7 | 4.3 | 0.00 | 0.00 | 0.00 | 53 | 1017.4 |
| 20260507082836 | 69 | 148 | 1.7 | 4.3 | 0.00 | 0.00 | 0.00 | 54 | 1017.3 |
| 20260507082335 | 69 | 151 | 2.6 | 4.3 | 0.00 | 0.00 | 0.00 | 55 | 1017.2 |
| 20260507081336 | 67 | 178 | 1.7 | 4.3 | 0.00 | 0.00 | 0.00 | 57 | 1017.2 |
| 20260507075836 | 66 | 162 | 0.9 | 1.7 | 0.00 | 0.00 | 0.00 | 57 | 1017.2 |
| 20260507075336 | 66 | 71 | 1.7 | 2.6 | 0.00 | 0.00 | 0.00 | 57 | 1017.1 |
| 20260507074336 | 65 | 45 | 1.7 | 4.3 | 0.00 | 0.00 | 0.00 | 58 | 1017.2 |
| 20260507073835 | 65 | 101 | 2.6 | 5.2 | 0.00 | 0.00 | 0.00 | 60 | 1017.3 |
| 20260507072836 | 63 | 13 | 0.9 | 2.6 | 0.00 | 0.00 | 0.00 | 61 | 1017.3 |
| 20260507072336 | 63 | 30 | 1.7 | 4.3 | 0.00 | 0.00 | 0.00 | 62 | 1017.4 |
| 20260507071336 | 62 | 281 | 0.9 | 1.7 | 0.00 | 0.00 | 0.00 | 63 | 1017.5 |
| 20260507070836 | 61 | 286 | 1.7 | 4.3 | 0.00 | 0.00 | 0.00 | 63 | 1017.4 |
| 20260507070336 | 61 | 281 | 2.6 | 4.3 | 0.00 | 0.00 | 0.00 | 63 | 1017.4 |
| 20260507065336 | 61 | 250 | 0.9 | 1.7 | 0.00 | 0.00 | 0.00 | 65 | 1017.5 |
| 20260507064836 | 60 | 249 | 0.0 | 1.7 | 0.00 | 0.00 | 0.00 | 65 | 1017.4 |
| 20260507063837 | 59 | 324 | 0.0 | 0.9 | 0.00 | 0.00 | 0.00 | 65 | 1017.3 |
| 20260507062836 | 59 | 312 | 0.9 | 1.7 | 0.00 | 0.00 | 0.00 | 65 | 1017.4 |
| 20260507061835 | 59 | 259 | 0.9 | 5.2 | 0.00 | 0.00 | 0.00 | 66 | 1017.4 |
| 20260507061336 | 59 | 218 | 1.7 | 4.3 | 0.00 | 0.00 | 0.00 | 66 | 1017.5 |
| 20260507060836 | 58 | 243 | 1.7 | 4.3 | 0.00 | 0.00 | 0.00 | 67 | 1017.5 |
| 20260507055335 | 57 | 125 | 0.9 | 4.3 | 0.00 | 0.00 | 0.00 | 69 | 1017.1 |
| 20260507054836 | 56 | 157 | 0.9 | 2.6 | 0.00 | 0.00 | 0.00 | 70 | 1017.3 |
| 20260507054336 | 55 | 147 | 1.7 | 4.3 | 0.00 | 0.00 | 0.00 | 70 | 1017.1 |
| 20260507053835 | 54 | 158 | 1.7 | 4.3 | 0.00 | 0.00 | 0.00 | 70 | 1017.1 |
| 20260507053336 | 54 | 162 | 1.7 | 4.3 | 0.00 | 0.00 | 0.00 | 70 | 1017.2 |
| 20260507052336 | 53 | 176 | 1.7 | 2.6 | 0.00 | 0.00 | 0.00 | 70 | 1017.3 |
| 20260507051836 | 52 | 177 | 0.9 | 1.7 | 0.00 | 0.00 | 0.00 | 70 | 1017.4 |
| 20260507044836 | 50 | 206 | 0.9 | 1.7 | 0.00 | 0.00 | 0.00 | 70 | 1017.0 |
| 20260507044336 | 49 | 181 | 0.9 | 2.6 | 0.00 | 0.00 | 0.00 | 70 | 1016.9 |
| 20260507043836 | 49 | 193 | 0.9 | 1.7 | 0.00 | 0.00 | 0.00 | 69 | 1016.8 |
| 20260507042836 | 49 | 9 | 0.0 | 0.0 | 0.00 | 0.00 | 0.00 | 68 | 1016.7 |
| 20260507040835 | 48 | 1 | 0.0 | 0.9 | 0.00 | 0.00 | 0.00 | 68 | 1016.8 |
| 20260507033336 | 47 | 330 | 0.9 | 0.9 | 0.00 | 0.00 | 0.00 | 68 | 1016.3 |
| 20260507032336 | 47 | 197 | 0.0 | 0.9 | 0.00 | 0.00 | 0.00 | 67 | 1016.2 |
| 20260507031836 | 48 | 221 | 0.9 | 2.6 | 0.00 | 0.00 | 0.00 | 67 | 1016.4 |
| 20260507030835 | 48 | 39 | 0.9 | 1.7 | 0.00 | 0.00 | 0.00 | 66 | 1016.3 |
| 20260507030335 | 48 | 29 | 0.9 | 0.9 | 0.00 | 0.00 | 0.00 | 66 | 1016.1 |
| 20260507025836 | 48 | 24 | 0.0 | 0.0 | 0.00 | 0.00 | 0.00 | 66 | 1015.9 |
| 20260507025335 | 48 | 28 | 0.0 | 0.9 | 0.00 | 0.00 | 0.00 | 66 | 1015.5 |
| 20260507024335 | 49 | 24 | 0.9 | 1.7 | 0.00 | 0.00 | 0.00 | 65 | 1015.7 |
| 20260507020836 | 49 | 14 | 0.9 | 1.7 | 0.00 | 0.00 | 0.00 | 64 | 1015.8 |
| 20260507020336 | 49 | 267 | 0.0 | 0.9 | 0.00 | 0.00 | 0.00 | 64 | 1015.6 |
| 20260507015836 | 50 | 250 | 0.0 | 0.9 | 0.00 | 0.00 | 0.00 | 64 | 1015.4 |
| 20260507014835 | 50 | 279 | 0.0 | 0.9 | 0.00 | 0.00 | 0.00 | 64 | 1015.3 |
| 20260507014336 | 50 | 309 | 0.0 | 0.9 | 0.00 | 0.00 | 0.00 | 64 | 1015.2 |
| 20260507012835 | 51 | 303 | 0.9 | 1.7 | 0.00 | 0.00 | 0.00 | 63 | 1015.4 |
| 20260507011335 | 52 | 279 | 0.9 | 0.9 | 0.00 | 0.00 | 0.00 | 62 | 1015.3 |
| 20260507004335 | 53 | 324 | 0.9 | 1.7 | 0.00 | 0.00 | 0.00 | 62 | 1014.8 |
| 20260507003835 | 53 | 305 | 0.9 | 1.7 | 0.00 | 0.00 | 0.00 | 62 | 1014.7 |
| 20260507003336 | 53 | 327 | 0.9 | 4.3 | 0.00 | 0.00 | 0.00 | 62 | 1014.7 |
| 20260507001836 | 54 | 329 | 0.9 | 1.7 | 0.00 | 0.00 | 0.00 | 61 | 1014.8 |
| 20260507000835 | 54 | 22 | 0.0 | 0.9 | 0.00 | 0.00 | 0.00 | 61 | 1014.7 |
| 20260507000336 | 54 | 1 | 0.9 | 1.7 | 0.00 | 0.00 | 0.00 | 61 | 1014.5 |
| 20260506232836 | 55 | 24 | 0.9 | 1.7 | 0.00 | 0.00 | 0.00 | 59 | 1014.4 |
| 20260506231335 | 56 | 23 | 0.0 | 2.6 | 0.00 | 0.00 | 0.00 | 59 | 1014.3 |
| 20260506225335 | 57 | 11 | 0.9 | 4.3 | 0.00 | 0.00 | 0.00 | 58 | 1013.9 |
| 20260506224836 | 57 | 2 | 0.9 | 0.9 | 0.00 | 0.00 | 0.00 | 57 | 1014.0 |
| 20260506224336 | 57 | 42 | 0.0 | 0.9 | 0.00 | 0.00 | 0.00 | 56 | 1014.0 |
| 20260506223835 | 57 | 31 | 0.0 | 0.9 | 0.00 | 0.00 | 0.00 | 56 | 1014.0 |
| 20260506223335 | 58 | 33 | 0.9 | 0.9 | 0.00 | 0.00 | 0.00 | 56 | 1014.0 |
| 20260506221835 | 58 | 359 | 0.0 | 0.0 | 0.00 | 0.00 | 0.00 | 55 | 1014.0 |
| 20260506220835 | 59 | 67 | 0.0 | 0.9 | 0.00 | 0.00 | 0.00 | 55 | 1013.9 |
| 20260506215835 | 59 | 72 | 0.9 | 1.7 | 0.00 | 0.00 | 0.00 | 55 | 1013.8 |
| 20260506215335 | 59 | 72 | 1.7 | 1.7 | 0.00 | 0.00 | 0.00 | 54 | 1013.7 |
| 20260506214835 | 60 | 69 | 0.0 | 0.9 | 0.00 | 0.00 | 0.00 | 54 | 1013.6 |
| 20260506214335 | 60 | 69 | 0.0 | 1.7 | 0.00 | 0.00 | 0.00 | 54 | 1013.8 |
| 20260506213836 | 60 | 71 | 0.9 | 1.7 | 0.00 | 0.00 | 0.00 | 54 | 1013.6 |
| 20260506213335 | 60 | 69 | 1.7 | 1.7 | 0.00 | 0.00 | 0.00 | 54 | 1013.6 |
| 20260506212836 | 61 | 67 | 0.9 | 1.7 | 0.00 | 0.00 | 0.00 | 53 | 1013.7 |
| 20260506211836 | 61 | 97 | 1.7 | 4.3 | 0.00 | 0.00 | 0.00 | 53 | 1013.6 |
| 20260506211336 | 62 | 83 | 0.9 | 2.6 | 0.00 | 0.00 | 0.00 | 52 | 1013.6 |
| 20260506210335 | 62 | 91 | 0.9 | 1.7 | 0.00 | 0.00 | 0.00 | 52 | 1013.6 |
| 20260506205335 | 62 | 102 | 0.9 | 1.7 | 0.00 | 0.00 | 0.00 | 51 | 1013.5 |
| 20260506204336 | 63 | 104 | 0.9 | 2.6 | 0.00 | 0.00 | 0.00 | 51 | 1013.5 |
| 20260506202335 | 63 | 80 | 1.7 | 4.3 | 0.00 | 0.00 | 0.00 | 51 | 1013.4 |
| 20260506195835 | 64 | 154 | 1.7 | 7.0 | 0.00 | 0.00 | 0.00 | 49 | 1013.2 |
| 20260506195335 | 64 | 124 | 6.1 | 12.2 | 0.00 | 0.00 | 0.00 | 50 | 1013.1 |
| 20260506194335 | 64 | 100 | 2.6 | 4.3 | 0.00 | 0.00 | 0.00 | 47 | 1013.0 |
| 20260506193835 | 64 | 103 | 2.6 | 5.2 | 0.00 | 0.00 | 0.00 | 46 | 1012.9 |
| 20260506193336 | 64 | 91 | 1.7 | 5.2 | 0.00 | 0.00 | 0.00 | 46 | 1012.8 |
| 20260506192336 | 65 | 71 | 1.7 | 5.2 | 0.00 | 0.00 | 0.00 | 45 | 1012.6 |
| 20260506185836 | 65 | 76 | 0.9 | 4.3 | 0.00 | 0.00 | 0.00 | 44 | 1012.5 |
| 20260506184835 | 65 | 56 | 0.9 | 6.1 | 0.00 | 0.00 | 0.00 | 43 | 1012.5 |
| 20260506184336 | 65 | 76 | 0.9 | 6.1 | 0.00 | 0.00 | 0.00 | 42 | 1012.2 |
| 20260506183836 | 66 | 100 | 2.6 | 7.0 | 0.00 | 0.00 | 0.00 | 42 | 1012.2 |
| 20260506181336 | 67 | 30 | 0.9 | 1.7 | 0.00 | 0.00 | 0.00 | 42 | 1011.8 |
| 20260506180335 | 67 | 6 | 0.9 | 0.9 | 0.00 | 0.00 | 0.00 | 41 | 1011.6 |
| 20260506174335 | 68 | 8 | 0.0 | 0.9 | 0.00 | 0.00 | 0.00 | 41 | 1011.6 |
| 20260506173836 | 68 | 315 | 0.0 | 1.7 | 0.00 | 0.00 | 0.00 | 40 | 1011.6 |
| 20260506173335 | 68 | 16 | 0.9 | 1.7 | 0.00 | 0.00 | 0.00 | 40 | 1011.6 |
| 20260506172836 | 69 | 20 | 0.9 | 1.7 | 0.00 | 0.00 | 0.00 | 40 | 1011.3 |
| 20260506172335 | 69 | 18 | 0.9 | 1.7 | 0.00 | 0.00 | 0.00 | 41 | 1011.5 |
| 20260506170835 | 69 | 53 | 0.9 | 1.7 | 0.00 | 0.00 | 0.00 | 40 | 1011.4 |
| 20260506165835 | 69 | 71 | 0.9 | 1.7 | 0.00 | 0.00 | 0.00 | 41 | 1011.6 |
| 20260506164836 | 70 | 68 | 0.0 | 0.9 | 0.00 | 0.00 | 0.00 | 40 | 1011.6 |
| 20260506161836 | 71 | 95 | 0.9 | 4.3 | 0.00 | 0.00 | 0.00 | 39 | 1011.7 |
| 20260506161335 | 71 | 98 | 2.6 | 4.3 | 0.00 | 0.00 | 0.00 | 39 | 1011.6 |
| 20260506160836 | 71 | 101 | 2.6 | 5.2 | 0.00 | 0.00 | 0.00 | 38 | 1011.6 |
| 20260506155835 | 72 | 75 | 1.7 | 4.3 | 0.00 | 0.00 | 0.00 | 39 | 1012.0 |
| 20260506154836 | 72 | 86 | 1.7 | 4.3 | 0.00 | 0.00 | 0.00 | 38 | 1012.0 |
| 20260506153835 | 72 | 83 | 1.7 | 4.3 | 0.00 | 0.00 | 0.00 | 38 | 1012.0 |
| 20260506153335 | 73 | 77 | 1.7 | 4.3 | 0.00 | 0.00 | 0.00 | 38 | 1012.1 |
| 20260506150335 | 73 | 87 | 2.6 | 6.1 | 0.00 | 0.00 | 0.00 | 37 | 1012.2 |
| 20260506144835 | 74 | 92 | 2.6 | 5.2 | 0.00 | 0.00 | 0.00 | 37 | 1012.4 |
| 20260506144336 | 74 | 89 | 2.6 | 5.2 | 0.00 | 0.00 | 0.00 | 38 | 1012.6 |
| 20260506142835 | 74 | 120 | 2.6 | 5.2 | 0.00 | 0.00 | 0.00 | 38 | 1012.6 |
| 20260506142335 | 74 | 108 | 1.7 | 4.3 | 0.00 | 0.00 | 0.00 | 38 | 1012.5 |
| 20260506141335 | 74 | 113 | 2.6 | 5.2 | 0.00 | 0.00 | 0.00 | 36 | 1012.5 |
| 20260506140335 | 75 | 105 | 0.9 | 4.3 | 0.00 | 0.00 | 0.00 | 34 | 1012.6 |
| 20260506135835 | 75 | 88 | 2.6 | 7.0 | 0.00 | 0.00 | 0.00 | 34 | 1013.1 |
| 20260506134836 | 76 | 137 | 2.6 | 5.2 | 0.00 | 0.00 | 0.00 | 33 | 1013.1 |
| 20260506134335 | 77 | 145 | 2.6 | 6.1 | 0.00 | 0.00 | 0.00 | 32 | 1013.1 |
| 20260506133335 | 78 | 155 | 3.5 | 7.8 | 0.00 | 0.00 | 0.00 | 32 | 1013.1 |
| 20260506132335 | 78 | 175 | 3.5 | 7.0 | 0.00 | 0.00 | 0.00 | 32 | 1013.1 |
| 20260506130335 | 81 | 87 | 0.9 | 5.2 | 0.00 | 0.00 | 0.00 | 29 | 1013.3 |
| 20260506125335 | 82 | 71 | 3.5 | 6.1 | 0.00 | 0.00 | 0.00 | 30 | 1013.5 |
| 20260506124335 | 81 | 27 | 2.6 | 6.1 | 0.00 | 0.00 | 0.00 | 30 | 1013.6 |
| 20260506123335 | 81 | 54 | 2.6 | 6.1 | 0.00 | 0.00 | 0.00 | 29 | 1013.5 |
| 20260506122836 | 81 | 104 | 2.6 | 6.1 | 0.00 | 0.00 | 0.00 | 29 | 1013.6 |
| 20260506121835 | 81 | 137 | 4.3 | 7.8 | 0.00 | 0.00 | 0.00 | 30 | 1013.8 |
| 20260506120835 | 81 | 89 | 4.3 | 7.8 | 0.00 | 0.00 | 0.00 | 29 | 1014.1 |
| 20260506114836 | 81 | 231 | 1.7 | 6.1 | 0.00 | 0.00 | 0.00 | 30 | 1014.5 |
| 20260506113835 | 81 | 278 | 0.9 | 2.6 | 0.00 | 0.00 | 0.00 | 30 | 1014.7 |
| 20260506113336 | 81 | 329 | 1.7 | 4.3 | 0.00 | 0.00 | 0.00 | 30 | 1014.6 |
| 20260506112836 | 80 | 265 | 1.7 | 4.3 | 0.00 | 0.00 | 0.00 | 30 | 1014.8 |
| 20260506111835 | 80 | 293 | 1.7 | 6.1 | 0.00 | 0.00 | 0.00 | 30 | 1014.9 |
| 20260506105336 | 79 | 221 | 2.6 | 5.2 | 0.00 | 0.00 | 0.00 | 31 | 1015.5 |
| 20260506104335 | 79 | 283 | 1.7 | 5.2 | 0.00 | 0.00 | 0.00 | 31 | 1015.5 |
| 20260506103835 | 79 | 311 | 1.7 | 5.2 | 0.00 | 0.00 | 0.00 | 33 | 1015.5 |
| 20260506101336 | 77 | 293 | 4.3 | 7.0 | 0.00 | 0.00 | 0.00 | 33 | 1015.7 |
| 20260506100835 | 77 | 75 | 1.7 | 5.2 | 0.00 | 0.00 | 0.00 | 34 | 1015.9 |
| 20260506094835 | 76 | 286 | 2.6 | 6.1 | 0.00 | 0.00 | 0.00 | 36 | 1016.3 |